Location: De Har
(53.3413°N, 6.6858°E)
Time: 20:59:23
(UTC+00:00)

IDEFIX/ARIANE 42P - Pass Details

Date: 22 April 2026
Orbit: 780 x 796 km, 98.6° (Epoch: 20 May)

Event Time Altitude Azimuth Distance (km) Brightness Sun altitude
Rises 01:47:23 0° 14° (NNE) 3,283 7.1 -18.4°
Reaches altitude 10° 01:49:43 10° 12° (NNE) 2,352 6.0 -18.2°
Maximum altitude 01:54:52 71° 290° (WNW) 832 2.6 -17.7°
Enters shadow 01:57:24 31° 213° (SSW) 1,361 3.2 -17.5°
